Location: Unspecified
(0.0000°N, 0.0000°E)
Time: 11:12:01
(UTC+00:00)

Courier 1B Rocket - Pass Details

Date: 27 November 2019
Orbit: 920 x 1202 km, 28.2° (Epoch: 13 December)

Event Time Altitude Azimuth Distance (km) Brightness Sun altitude
Rises 19:33:42 0° 298° (WNW) 3,967 8.7 -24.6°
Reaches altitude 10° 19:36:26 10° 297° (WNW) 3,041 8.1 -25.2°
Maximum altitude 19:44:04 80° 211° (SSW) 1,205 5.4 -27.0°
Enters shadow 19:47:50 34° 128° (SE) 1,848 6.2 -27.8°
Drops below altitude 10° 19:51:56 10° 124° (SE) 3,131 - -28.8°
Sets 19:54:48 0° 123° (ESE) 4,090 - -29.4°
